Simultaneous Nadir Overpasses (SNOs) Predictions

Prediction of SNOs near US between AQUA and NPP Satellite Orbit:

Table of predicted SNOs near US for the next 10.0 days since TLE Epoch: 11/7/2015
Index Date (AQUA) Time (AQUA) AQUA Lat,Lon Date (NPP) Time (NPP) NPP Lat,Lon Distance(km) Time Diff (sec)
1 11/08/2015 19:06:24 49.95, -92.57 11/08/2015 19:03:50 49.67, -94.37 132.50 154
2 11/08/2015 20:45:17 49.95,-117.29 11/08/2015 20:45:17 49.50,-119.67 177.85 0
3 11/11/2015 08:33:17 26.46,-100.38 11/11/2015 08:26:44 26.49,-100.43 6.84 393
4 11/11/2015 10:09:39 35.53,-122.68 11/11/2015 10:05:37 35.66,-123.24 52.09 242
5 11/14/2015 07:18:44 49.92, -76.01 11/14/2015 07:22:48 50.37, -78.22 165.03 244
6 11/14/2015 08:57:37 49.92,-100.73 11/14/2015 09:04:16 50.47,-103.55 209.54 399
7 11/16/2015 18:16:52 49.98, -80.20 11/16/2015 18:13:05 49.69, -81.72 113.35 227
8 11/16/2015 19:55:45 49.98,-104.92 11/16/2015 19:54:33 49.58,-107.05 158.63 72




NCC Satellite Simultaneous Nadir Overpasses (SNOs) Prediction Service
